sat.trackr.live / text

‹ back to catalog

STARLINK-36467

NORAD 67348 · 2026-003Q

PAYLOAD ACTIVE UNKNOWN

§ Identity

Operator
Country
US
Launch date
2026-01-09
Launch site
AFETR
Launch vehicle
Mass (kg)
RCS (m²)

Purposes: comms

External: N2YO · Heavens-Above · Gunter

§ Orbital elements

Epoch: 2026-05-25T01:43:32.294784Z

Period
94.27 min
Inclination
43.0019°
Eccentricity
0.0001101
Mean motion
15.27569105 rev/d
Perigee alt
482.3 km
Apogee alt
483.8 km
Semi-major
6,861.2 km
B*
6.9825e-4
RAAN
155.8681°
Arg perigee
275.3480°
Mean anomaly
84.7246°
Rev number
2,050

§ Raw data

STARLINK-364671 67348U 26003Q   26145.07190156  .00018995  00000+0  69825-3 0  99902 67348  43.0019 155.8681 0001101 275.3480  84.7246 15.27569105 20502

JSON: /api/v1/satellites/67348 · /tle

For live sub-satellite position, see the globe view (requires WebGL).

§ Visibility from observer

Set your observer location to see the next 7 days of passes ≥ 10°. The values pass through the URL so the page stays shareable.

No JS? Fill the form by hand. The geolocation button needs JavaScript.